[[{"header":{"parameterUnit":"m.s-1","parameterCategory":1,"la1":30.2991,"la2":30.254,"lo1":-89.0895,"lo2":-89.0444,"dy":0.0017,"dx":0.0017,"nx":28,"ny":28,"refTime":"2024-07-16T09:00:00:Z","depth":0,"parameterNumber":2,"parameterNumberName":"U-component_of_WINDS"},"data":[0,0,0,0,0,0,0,0,0,0,0,0,0,0,0,0,0,0,0,0,0,0,0,0,0,0,0,0,0,0,0,0,0,0,0,0,0,0,0,0,0,0,0,0,0,0,0,0,0,0,0,0,0,0,0,0,0,0,1.1397,1.1398,0,1.151,1.1512,1.1513,1.1538,1.1538,1.1537,1.1536,1.1657,1.1661,1.1665,0,0,0,0,0,0,0,0,0,0,0,0,0,1.1206,1.1209,1.1397,1.1398,1.14,1.151,1.1512,1.1513,1.1539,1.1538,1.1537,1.1536,1.1656,1.166,1.1665,0,0,0,0,0,0,0,0,0,0,0,0,0,1.1301,1.121,1.1396,1.1425,1.1429,1.151,1.1512,1.1514,1.1539,1.1538,1.1536,1.1535,1.1654,1.166,1.1666,1.1727,0,0,1.1684,1.1687,0,0,0,0,0,0,0,0,1.1296,1.1308,1.142,1.1424,1.1428,1.1509,1.1489,1.1585,1.1539,1.1497,1.1536,1.1535,1.1609,1.1619,1.1643,1.1733,1.1738,1.1685,1.1688,1.1691,1.1692,0,0,0,0,0,0,0,1.1289,1.1303,1.1442,1.1421,1.1426,1.1434,1.1446,1.1507,1.1559,1.1501,1.1503,1.1516,1.1611,1.1637,1.1646,1.174,1.1684,1.169,1.1693,1.1696,1.1886,1.1887,0,0,0,0,0,0,1.1277,1.1298,1.1438,1.1445,1.1357,1.1438,1.1452,1.1484,1.1558,1.1568,1.1517,1.1517,1.1627,1.1639,1.165,1.1727,1.1691,1.1696,1.17,1.1884,1.1886,1.1888,0,0,0,0,0,0,1.1273,1.1289,1.1434,1.1372,1.1391,1.1443,1.1479,1.1487,1.1513,1.157,1.158,1.1533,1.1627,1.1642,1.1707,1.1731,1.1699,1.1704,1.1883,1.1885,1.1887,1.188,0,0,0,0,0,0,1.1267,1.1287,1.131,1.1372,1.1394,1.1488,1.148,1.149,1.1523,1.1523,1.1588,1.1598,1.1627,1.1698,1.1713,1.1739,1.1709,1.1881,1.1884,1.1886,1.1878,1.1882,1.1885,0,0,0,0,0,1.126,1.1305,1.1311,1.1328,1.1424,1.1489,1.1502,1.1533,1.1524,1.1548,1.1585,1.1596,1.1726,1.1705,1.1722,1.175,1.1879,1.1883,1.1886,1.1877,1.1881,1.1884,0,0,0,0,0,0,1.1246,1.1314,1.1321,1.1387,1.1432,1.1493,1.1524,1.1536,1.1586,1.1584,1.1622,1.1637,1.17,1.1732,1.1707,1.1813,1.1803,1.1809,1.179,1.1794,1.1797,1.1788,1.1714,0,0,0,0,0,1.125,1.1296,1.1354,1.1406,1.1428,1.1472,1.1502,1.1522,1.157,1.159,1.1631,1.1679,1.1731,1.1764,1.1815,1.1883,1.1898,1.191,1.1913,1.1916,1.1921,1.1959,1.1966,1.1899,1.1899,1.1899,0,0,1.126,1.1303,1.133,1.1404,1.1441,1.1489,1.1488,1.1539,1.1575,1.1598,1.1662,1.1694,1.175,1.1817,1.1849,1.1845,1.1943,1.192,1.1921,1.1926,1.1964,1.197,1.1975,1.1901,1.19,1.19,0,0,1.1303,1.1339,1.1387,1.1424,1.1479,1.1508,1.1519,1.1579,1.16,1.1665,1.1683,1.1727,1.1816,1.1854,1.1886,1.1942,1.1954,1.1958,1.1974,1.2011,1.2016,1.2021,1.2041,1.2048,1.1963,1.1963,1.1963,0,1.1308,1.138,1.141,1.146,1.1493,1.1514,1.1563,1.1598,1.1667,1.169,1.1685,1.1795,1.1835,1.1911,1.1924,1.1949,1.1964,1.1951,1.2013,1.2018,1.2023,1.2043,1.205,1.1963,1.1963,1.1963,1.1963,0,1.1384,1.1434,1.1466,1.153,1.1567,1.1616,1.1655,1.1688,1.1705,1.1735,1.1801,1.1848,1.1909,1.1928,1.1946,1.2007,1.2003,1.2005,1.1995,1.2029,1.2048,1.2056,1.1964,1.1964,1.1963,1.1963,0,0,1.1421,1.1501,1.1513,1.1542,1.1605,1.1644,1.1695,1.1752,1.178,1.1828,1.1871,1.1945,1.1947,1.1982,1.2005,1.2037,1.2078,1.2035,1.2037,1.2041,1.2149,1.2147,1.2155,1.2086,1.2088,1.2089,1.2144,0,1.1471,1.156,1.1589,1.1664,1.171,1.1731,1.1775,1.1819,1.1848,1.1892,1.1926,1.1977,1.1975,1.1997,1.2029,1.2066,1.21,1.2063,1.2128,1.213,1.2113,1.2165,1.2163,1.2212,1.2151,1.2153,1.2154,0,1.1541,1.1588,1.1667,1.1723,1.1743,1.1782,1.1837,1.1879,1.1929,1.1949,1.1988,1.2007,1.2062,1.2049,1.2125,1.2099,1.2127,1.2149,1.2152,1.216,1.2144,1.2174,1.2229,1.2236,1.2166,1.2165,1.2164,0,1.156,1.1643,1.1701,1.1725,1.1792,1.1819,1.1849,1.1897,1.193,1.1979,1.2,1.2055,1.2085,1.2128,1.2162,1.2149,1.2235,1.2225,1.2253,1.2252,1.227,1.2269,1.2331,1.2289,1.2289,1.2288,1.2288,0,1.1613,1.166,1.171,1.1745,1.1799,1.1833,1.1886,1.1916,1.196,1.2002,1.2024,1.2064,1.2106,1.2152,1.218,1.2238,1.2252,1.227,1.2276,1.2268,1.2265,1.2287,1.2284,1.229,1.229,1.229,1.2289,0,1.1643,1.1678,1.1742,1.18,1.1815,1.1853,1.1903,1.1939,1.1968,1.2022,1.2037,1.2084,1.2139,1.2177,1.2248,1.2266,1.233,1.2336,1.2312,1.2316,1.2341,1.2338,1.242,1.2432,1.2382,1.2382,1.2382,0,1.1674,1.1711,1.1772,1.1801,1.183,1.1878,1.191,1.1945,1.1978,1.2038,1.2067,1.2123,1.2169,1.2256,1.2298,1.2352,1.236,1.2385,1.2369,1.2358,1.236,1.2358,1.2361,1.2387,1.2388,1.2388,1.2388,0,1.1726,1.1741,1.1787,1.1839,1.1877,1.192,1.1963,1.1986,1.2029,1.2065,1.2121,1.2157,1.2228,1.2284,1.2342,1.2374,1.2389,1.2393,1.2402,1.2394,1.2378,1.2387,1.2319,1.2391,1.2391,1.2391,1.239,1.239,1.1758,1.1791,1.1839,1.1889,1.1925,1.1965,1.2001,1.2034,1.2081,1.2141,1.2158,1.2216,1.2266,1.2345,1.2378,1.2424,1.2422,1.2436,1.2439,1.2442,1.2442,1.2371,1.2435,1.2435,1.2435,1.2435,1.2435,0,1.181,1.1841,1.1887,1.1946,1.1986,1.1994,1.2043,1.2076,1.2126,1.217,1.2215,1.2279,1.2332,1.2378,1.2434,1.2462,1.247,1.2476,1.2474,1.2481,1.244,1.2426,1.2468,1.2468,1.2468,1.2468,1.2468,1.2468,1.1842,1.1899,1.1919,1.1994,1.2026,1.2082,1.2108,1.2145,1.2181,1.225,1.2295,1.2323,1.2368,1.2427,1.2477,1.2489,1.2509,1.2513,1.2526,1.2488,1.2484,1.248,1.2467,1.2517,1.2517,1.2563,1.2564,1.2564]},{"header":{"parameterUnit":"m.s-1","parameterCategory":1,"la1":30.2991,"la2":30.254,"lo1":-89.0895,"lo2":-89.0444,"dy":0.0017,"dx":0.0017,"nx":28,"ny":28,"refTime":"2024-07-16T09:00:00:Z","depth":0,"parameterNumber":3,"parameterNumberName":"V-component_of_WINDS"},"data":[0,0,0,0,0,0,0,0,0,0,0,0,0,0,0,0,0,0,0,0,0,0,0,0,0,0,0,0,0,0,0,0,0,0,0,0,0,0,0,0,0,0,0,0,0,0,0,0,0,0,0,0,0,0,0,0,0,0,2.4384,2.4383,0,2.4357,2.4357,2.4356,2.4361,2.4361,2.4362,2.4362,2.4332,2.4331,2.433,0,0,0,0,0,0,0,0,0,0,0,0,0,2.4434,2.4433,2.4384,2.4383,2.4383,2.4357,2.4357,2.4356,2.4361,2.4361,2.4362,2.4362,2.4333,2.4331,2.433,0,0,0,0,0,0,0,0,0,0,0,0,0,2.441,2.4433,2.4384,2.4382,2.4382,2.4357,2.4357,2.4356,2.4361,2.4361,2.4362,2.4363,2.4333,2.4331,2.433,2.4304,0,0,2.4324,2.4323,0,0,0,0,0,0,0,0,2.4411,2.4408,2.4383,2.4382,2.4382,2.4363,2.4364,2.4339,2.436,2.4368,2.4362,2.4363,2.4342,2.4339,2.4333,2.4303,2.4302,2.4324,2.4323,2.4322,2.4321,0,0,0,0,0,0,0,2.4413,2.4409,2.4373,2.4382,2.4382,2.4381,2.4379,2.4359,2.4351,2.4368,2.4368,2.4365,2.4342,2.4334,2.4332,2.4301,2.4324,2.4322,2.4321,2.432,2.4246,2.4245,0,0,0,0,0,0,2.4416,2.4411,2.4374,2.4372,2.4399,2.438,2.4377,2.4368,2.4352,2.435,2.4365,2.4365,2.4337,2.4334,2.4331,2.4298,2.4322,2.432,2.4319,2.4247,2.4246,2.4245,0,0,0,0,0,0,2.4417,2.4412,2.4375,2.4391,2.4387,2.4378,2.4368,2.4367,2.436,2.4349,2.4348,2.4359,2.4338,2.4334,2.431,2.4297,2.4319,2.4318,2.4248,2.4246,2.4245,2.4233,0,0,0,0,0,0,2.4418,2.4413,2.4404,2.4391,2.4386,2.4356,2.4368,2.4366,2.4357,2.4358,2.4343,2.4342,2.4338,2.4313,2.4308,2.4295,2.4316,2.4249,2.4247,2.4246,2.4235,2.4232,2.4229,0,0,0,0,0,2.442,2.4402,2.4404,2.4399,2.4375,2.4355,2.4352,2.4349,2.4356,2.4347,2.4339,2.4342,2.43,2.4311,2.4306,2.4291,2.425,2.4248,2.4246,2.4236,2.4232,2.4229,0,0,0,0,0,0,2.4413,2.44,2.4402,2.438,2.4368,2.4356,2.4344,2.4346,2.4331,2.4333,2.4329,2.4325,2.4301,2.4294,2.4307,2.4264,2.4275,2.4272,2.427,2.4266,2.4263,2.4265,2.4315,0,0,0,0,0,2.4409,2.4395,2.4384,2.4365,2.436,2.4353,2.4344,2.4342,2.433,2.4326,2.4317,2.4304,2.4287,2.4277,2.4261,2.4234,2.4229,2.4221,2.4219,2.4216,2.4213,2.4195,2.4191,2.4238,2.4238,2.4238,0,0,2.44,2.4391,2.4383,2.4363,2.4355,2.4339,2.4349,2.4332,2.4319,2.4323,2.43,2.4293,2.4278,2.4252,2.424,2.4245,2.4199,2.4214,2.4212,2.421,2.4193,2.4188,2.4184,2.4237,2.4237,2.4237,0,0,2.4375,2.4368,2.4351,2.4342,2.4328,2.4323,2.4319,2.4306,2.4301,2.4279,2.428,2.4264,2.4237,2.4225,2.4216,2.4185,2.4186,2.418,2.4165,2.4148,2.4144,2.414,2.4127,2.4122,2.4177,2.4177,2.4177,0,2.4366,2.4343,2.4341,2.4324,2.4314,2.4317,2.4298,2.4288,2.427,2.4263,2.4269,2.4233,2.4223,2.4194,2.4186,2.4179,2.4172,2.4181,2.4145,2.4141,2.4138,2.4125,2.412,2.4177,2.4177,2.4177,2.4177,0,2.4331,2.4315,2.4302,2.4284,2.4273,2.4255,2.4249,2.4238,2.4237,2.4231,2.4206,2.4194,2.4175,2.4168,2.4167,2.4137,2.4141,2.4146,2.4157,2.4133,2.412,2.4116,2.4175,2.4176,2.4176,2.4176,0,0,2.4301,2.4282,2.4277,2.4268,2.4253,2.424,2.4221,2.4203,2.4192,2.4179,2.4161,2.4137,2.4141,2.413,2.4128,2.4113,2.4085,2.4119,2.4119,2.4112,2.4049,2.4043,2.4038,2.4087,2.4086,2.4085,2.4049,0,2.4274,2.4241,2.4238,2.4208,2.4192,2.4193,2.4176,2.4163,2.4157,2.4141,2.4133,2.4115,2.4123,2.4116,2.4101,2.4092,2.4072,2.4095,2.4068,2.4067,2.407,2.4032,2.4027,2.3994,2.4044,2.4044,2.4043,0,2.4238,2.4223,2.4192,2.4177,2.417,2.4155,2.4136,2.4122,2.4107,2.4103,2.409,2.4089,2.4066,2.4079,2.4047,2.4062,2.405,2.4044,2.4042,2.4039,2.4052,2.4025,2.3983,2.3977,2.4036,2.4036,2.4037,0,2.4217,2.419,2.4167,2.4159,2.4142,2.413,2.4122,2.4108,2.4097,2.408,2.4072,2.4053,2.4042,2.4027,2.402,2.403,2.3987,2.3999,2.3981,2.3981,2.3971,2.3971,2.3925,2.3967,2.3967,2.3967,2.3967,0,2.4185,2.4165,2.4157,2.4142,2.4119,2.4115,2.4091,2.4084,2.407,2.4053,2.4053,2.4036,2.4029,2.401,2.4004,2.3977,2.3973,2.3967,2.3965,2.3966,2.3966,2.3957,2.3959,2.3965,2.3966,2.3966,2.3966,0,2.4158,2.4152,2.4126,2.4111,2.4107,2.409,2.4076,2.4061,2.4054,2.4032,2.4026,2.4015,2.3993,2.3984,2.3958,2.3953,2.3921,2.3922,2.3926,2.3925,2.3906,2.3907,2.3851,2.3842,2.3892,2.3891,2.3891,0,2.4137,2.4122,2.4105,2.4094,2.4085,2.4067,2.4055,2.405,2.4037,2.4017,2.4004,2.3982,2.3964,2.3928,2.3917,2.3895,2.3894,2.3876,2.3891,2.3891,2.3891,2.3891,2.3889,2.3873,2.3872,2.3872,2.3872,0,2.4101,2.4098,2.4082,2.4063,2.4049,2.4034,2.402,2.401,2.4002,2.3987,2.3965,2.3951,2.3923,2.39,2.3878,2.3867,2.3867,2.3867,2.3861,2.3861,2.3863,2.3859,2.3916,2.3868,2.3868,2.3869,2.3869,2.3869,2.4075,2.4061,2.4046,2.4027,2.4015,2.4001,2.3985,2.3976,2.3958,2.3935,2.3933,2.3908,2.389,2.386,2.3849,2.3828,2.3832,2.3825,2.3822,2.382,2.3817,2.3867,2.3824,2.3824,2.3824,2.3824,2.3824,0,2.4037,2.4027,2.401,2.3989,2.3973,2.3976,2.3959,2.3945,2.3924,2.3908,2.389,2.3863,2.384,2.3826,2.3803,2.3788,2.3787,2.3782,2.3782,2.3779,2.3816,2.3822,2.3783,2.3783,2.3783,2.3783,2.3783,2.3783,2.4015,2.399,2.3985,2.3953,2.3943,2.3919,2.3909,2.3895,2.3882,2.3852,2.3834,2.3825,2.3809,2.3784,2.3762,2.3759,2.3749,2.3743,2.3739,2.3773,2.3777,2.3781,2.3787,2.3741,2.3741,2.3704,2.3704,2.3703]}]]